Location: Auttagershofen
(48.1940°N, 10.0237°E)
Time: 16:00:18
(UTC+00:00)

Gbstr 26 Del rocket - Pass Details

Date: 18 January 2026
Orbit: 490 x 1217 km, 51.8° (Epoch: 10 February)

Event Time Altitude Azimuth Distance (km) Brightness Sun altitude
Exits shadow 04:33:37 36° 230° (SW) 1,733 4.9 -24.5°
Maximum altitude 04:36:59 76° 152° (SSE) 1,122 4.3 -23.9°
Drops below altitude 10° 04:43:34 10° 68° (ENE) 2,704 7.2 -22.8°
Sets 04:45:58 0° 67° (ENE) 3,548 7.9 -22.4°
